QPF
0.00 0.00 0.00 0.00 0.00 0.00 0.00 0.00 0.00 0.00 0.00 0.00 0.00 0.00 0.00 0.00 0.01 0.01 0.01 0.01 0.01 0.01 0.01 0.01 0.01 0.00 0.00 0.00 0.01 0.02 0.02 0.02 0.02 0.02 0.02 0.02 0.01 0.01 0.02 0.02 0.02 0.03 0.04 0.05
0.00 0.00 0.00 0.00 0.00 0.00 0.00 0.00 0.00 0.00 0.00 0.00 0.00 0.00 0.00 0.00 0.00 0.00 0.01 0.01 0.01 0.01 0.01 0.01 0.00 0.00 0.00 0.00 0.00 0.00 0.00 0.00 0.00 0.00 0.00 0.00 0.00 0.00 0.00 0.00 0.00 0.01 0.01 0.01
0.00 0.00 0.00 0.00 0.00 0.00 0.00 0.00 0.00 0.00 0.00 0.00 0.00 0.00 0.00 0.00 0.00 0.00 0.00 0.01 0.02 0.02 0.01 0.01 0.00 0.00 0.00 0.00 0.00 0.00 0.00 0.00 0.00 0.00 0.00 0.00 0.00 0.00 0.00 0.00 0.00 0.00 0.00 0.00
0.00 0.00 0.00 0.00 0.00 0.00 0.00 0.00 0.00 0.00 0.00 0.00 0.00 0.00 0.00 0.00 0.00 0.00 0.01 0.01 0.02 0.01 0.01 0.00 0.00 0.00 0.00 0.00 0.00 0.00 0.00 0.00 0.00 0.00 0.00 0.00 0.00 0.00 0.00 0.00 0.00 0.00 0.00 0.00
0.00 0.00 0.00 0.00 0.00 0.00 0.00 0.00 0.00 0.00 0.00 0.00 0.00 0.00 0.00 0.00 0.00 0.01 0.01 0.01 0.01 0.00 0.00 0.01 0.00 0.00 0.00 0.00 0.00 0.00 0.00 0.00 0.00 0.00 0.00 0.00 0.00 0.00 0.00 0.00 0.00 0.00 0.00 0.00
0.00 0.00 0.00 0.00 0.00 0.00 0.00 0.00 0.00 0.00 0.00 0.00 0.00 0.00 0.00 0.00 0.00 0.00 0.00 0.00 0.01 0.00 0.00 0.00 0.00 0.00 0.00 0.00 0.00 0.00 0.00 0.00 0.00 0.00 0.00 0.00 0.00 0.00 0.00 0.00 0.00 0.00 0.00 0.00
0.00 0.00 0.00 0.00 0.00 0.00 0.00 0.00 0.00 0.00 0.00 0.00 0.00 0.00 0.00 0.00 0.00 0.00 0.00 0.00 0.00 0.00 0.01 0.01 0.00 0.00 0.00 0.00 0.00 0.00 0.00 0.00 0.00 0.00 0.00 0.00 0.00 0.00 0.00 0.00 0.00 0.00 0.00 0.00
0.00 0.00 0.00 0.00 0.00 0.00 0.00 0.00 0.00 0.00 0.00 0.00 0.00 0.00 0.00 0.00 0.00 0.00 0.00 0.00 0.00 0.00 0.00 0.00 0.00 0.00 0.00 0.00 0.00 0.00 0.00 0.00 0.00 0.00 0.00 0.00 0.00 0.00 0.00 0.00 0.00 0.00 0.00 0.00
0.00 0.00 0.00 0.00 0.00 0.00 0.00 0.00 0.00 0.00 0.00 0.00 0.00 0.00 0.00 0.00 0.00 0.00 0.00 0.00 0.00 0.00 0.00 0.00 0.00 0.00 0.00 0.00 0.00 0.00 0.00 0.00 0.00 0.00 0.00 0.00 0.00 0.00 0.00 0.00 0.00 0.00 0.00 0.00
0.00 0.00 0.00 0.00 0.00 0.00 0.00 0.00 0.00 0.00 0.00 0.00 0.00 0.00 0.00 0.00 0.00 0.00 0.00 0.00 0.00 0.00 0.00 0.00 0.00 0.00 0.00 0.00 0.00 0.00 0.00 0.00 0.00 0.00 0.00 0.00 0.00 0.00 0.00 0.00 0.00 0.00 0.00 0.00
0.00 0.00 0.00 0.00 0.00 0.00 0.00 0.00 0.00 0.00 0.00 0.00 0.00 0.00 0.00 0.00 0.00 0.00 0.00 0.00 0.00 0.00 0.00 0.00 0.00 0.00 0.00 0.00 0.00 0.00 0.00 0.00 0.00 0.00 0.00 0.00 0.00 0.00 0.00 0.00 0.00 0.00 0.00 0.00
0.00 0.00 0.00 0.00 0.00 0.00 0.00 0.00 0.00 0.00 0.00 0.00 0.00 0.00 0.00 0.00 0.00 0.00 0.00 0.00 0.00 0.00 0.00 0.00 0.00 0.00 0.00 0.00 0.00 0.00 0.00 0.00 0.00 0.00 0.00 0.00 0.00 0.00 0.00 0.00 0.00 0.00 0.00 0.00
0.00 0.00 0.00 0.00 0.00 0.00 0.00 0.00 0.00 0.00 0.00 0.00 0.00 0.00 0.00 0.00 0.00 0.00 0.00 0.00 0.00 0.00 0.00 0.00 0.00 0.00 0.00 0.00 0.00 0.00 0.00 0.00 0.00 0.00 0.00 0.00 0.00 0.00 0.00 0.00 0.00 0.00 0.00 0.00
0.00 0.00 0.00 0.00 0.00 0.00 0.00 0.00 0.00 0.00 0.00 0.00 0.00 0.00 0.00 0.00 0.00 0.00 0.00 0.00 0.00 0.00 0.00 0.00 0.00 0.00 0.00 0.00 0.00 0.00 0.00 0.00 0.00 0.01 0.00 0.00 0.00 0.00 0.00 0.00 0.00 0.00 0.00 0.00
0.00 0.00 0.00 0.00 0.00 0.00 0.00 0.00 0.00 0.00 0.00 0.00 0.00 0.00 0.01 0.01 0.01 0.01 0.01 0.01 0.01 0.01 0.00 0.00 0.00 0.00 0.00 0.00 0.00 0.00 0.00 0.00 0.00 0.00 0.00 0.00 0.01 0.01 0.00 0.00 0.00 0.00 0.00 0.00
0.00 0.00 0.00 0.00 0.00 0.00 0.00 0.00 0.00 0.00 0.00 0.00 0.01 0.01 0.01 0.01 0.01 0.02 0.02 0.02 0.02 0.01 0.01 0.01 0.01 0.00 0.00 0.00 0.00 0.00 0.00 0.00 0.00 0.00 0.00 0.01 0.01 0.01 0.01 0.00 0.00 0.00 0.00 0.00
0.00 0.00 0.00 0.01 0.01 0.00 0.01 0.01 0.01 0.01 0.01 0.02 0.03 0.03 0.02 0.02 0.02 0.03 0.04 0.03 0.02 0.02 0.01 0.01 0.01 0.00 0.00 0.00 0.00 0.00 0.00 0.00 0.00 0.00 0.01 0.02 0.02 0.03 0.02 0.02 0.01 0.00 0.00 0.00
0.00 0.01 0.01 0.01 0.01 0.01 0.01 0.00 0.00 0.01 0.02 0.02 0.03 0.03 0.04 0.04 0.04 0.05 0.05 0.04 0.02 0.01 0.01 0.00 0.00 0.00 0.00 0.00 0.00 0.00 0.00 0.00 0.00 0.01 0.03 0.04 0.05 0.06 0.05 0.04 0.02 0.01 0.00 0.00
0.00 0.01 0.02 0.01 0.01 0.01 0.01 0.01 0.01 0.02 0.02 0.03 0.04 0.05 0.05 0.04 0.04 0.04 0.02 0.01 0.01 0.01 0.00 0.00 0.00 0.00 0.00 0.00 0.00 0.00 0.00 0.00 0.01 0.02 0.05 0.07 0.09 0.10 0.09 0.07 0.05 0.03 0.01 0.00
0.00 0.00 0.01 0.01 0.01 0.01 0.02 0.02 0.03 0.03 0.07 0.06 0.04 0.03 0.02 0.01 0.01 0.01 0.00 0.00 0.00 0.00 0.00 0.00 0.00 0.00 0.00 0.00 0.00 0.00 0.00 0.00 0.01 0.02 0.05 0.09 0.12 0.14 0.14 0.13 0.11 0.07 0.03 0.01
0.00 0.00 0.01 0.01 0.01 0.01 0.01 0.01 0.02 0.03 0.04 0.01 0.00 0.00 0.00 0.00 0.00 0.00 0.00 0.00 0.00 0.00 0.00 0.00 0.00 0.00 0.00 0.00 0.00 0.00 0.00 0.00 0.01 0.02 0.04 0.08 0.12 0.15 0.18 0.20 0.19 0.14 0.06 0.02
0.00 0.00 0.00 0.01 0.02 0.02 0.01 0.00 0.00 0.00 0.00 0.00 0.00 0.00 0.00 0.00 0.00 0.00 0.00 0.00 0.00 0.00 0.00 0.00 0.00 0.00 0.00 0.00 0.00 0.00 0.00 0.00 0.00 0.02 0.04 0.08 0.12 0.17 0.21 0.25 0.26 0.21 0.12 0.04
0.00 0.00 0.00 0.01 0.01 0.00 0.00 0.00 0.00 0.00 0.00 0.00 0.00 0.00 0.00 0.00 0.00 0.00 0.00 0.00 0.00 0.00 0.00 0.00 0.00 0.00 0.00 0.00 0.00 0.00 0.00 0.00 0.00 0.01 0.03 0.07 0.13 0.20 0.26 0.33 0.36 0.31 0.19 0.08
0.00 0.00 0.00 0.00 0.00 0.00 0.00 0.00 0.00 0.00 0.00 0.00 0.00 0.00 0.00 0.00 0.00 0.00 0.00 0.00 0.00 0.00 0.00 0.00 0.00 0.00 0.00 0.00 0.00 0.00 0.00 0.00 0.01 0.01 0.02 0.06 0.12 0.19 0.27 0.36 0.44 0.42 0.27 0.11
0.00 0.00 0.00 0.00 0.00 0.00 0.00 0.00 0.00 0.00 0.00 0.00 0.00 0.00 0.00 0.00 0.00 0.00 0.00 0.00 0.00 0.00 0.00 0.00 0.00 0.00 0.00 0.00 0.00 0.00 0.00 0.00 0.01 0.02 0.03 0.05 0.11 0.21 0.31 0.38 0.44 0.44 0.32 0.16
0.00 0.00 0.00 0.00 0.00 0.00 0.00 0.00 0.00 0.00 0.00 0.00 0.00 0.00 0.00 0.00 0.00 0.00 0.00 0.00 0.00 0.00 0.00 0.00 0.00 0.00 0.00 0.00 0.00 0.00 0.00 0.00 0.01 0.02 0.03 0.05 0.11 0.20 0.32 0.41 0.45 0.42 0.37 0.23
MSLP
1012.64 1013.22 1013.62 1013.85 1013.94 1013.95 1013.92 1013.86 1013.80 1013.71 1013.57 1013.35 1013.06 1012.70 1012.30 1011.91 1011.57 1011.33 1011.20 1011.16 1011.18 1011.23 1011.24 1011.19 1011.08 1010.90 1010.70 1010.54 1010.45 1010.48 1010.63 1010.89 1011.21 1011.55 1011.84 1012.03 1012.11 1012.06 1011.90 1011.67 1011.42 1011.17 1010.95 1010.77
1012.88 1013.32 1013.60 1013.76 1013.83 1013.88 1013.95 1014.05 1014.17 1014.26 1014.27 1014.17 1013.93 1013.56 1013.09 1012.59 1012.12 1011.74 1011.48 1011.33 1011.29 1011.29 1011.29 1011.24 1011.13 1010.95 1010.74 1010.56 1010.45 1010.45 1010.59 1010.85 1011.18 1011.54 1011.85 1012.07 1012.16 1012.11 1011.94 1011.68 1011.38 1011.07 1010.80 1010.57
1012.92 1013.22 1013.39 1013.49 1013.57 1013.70 1013.90 1014.19 1014.50 1014.78 1014.95 1014.95 1014.75 1014.35 1013.80 1013.17 1012.55 1012.01 1011.61 1011.36 1011.24 1011.21 1011.20 1011.17 1011.08 1010.93 1010.74 1010.57 1010.45 1010.45 1010.58 1010.83 1011.17 1011.53 1011.86 1012.10 1012.21 1012.17 1012.00 1011.73 1011.40 1011.07 1010.75 1010.47
1012.84 1013.01 1013.08 1013.14 1013.26 1013.49 1013.85 1014.33 1014.84 1015.31 1015.63 1015.72 1015.55 1015.11 1014.46 1013.70 1012.92 1012.23 1011.69 1011.32 1011.13 1011.06 1011.05 1011.03 1010.98 1010.86 1010.71 1010.55 1010.45 1010.45 1010.57 1010.81 1011.14 1011.50 1011.84 1012.09 1012.21 1012.20 1012.04 1011.78 1011.45 1011.10 1010.76 1010.44
1012.77 1012.80 1012.80 1012.84 1013.00 1013.34 1013.87 1014.53 1015.24 1015.88 1016.33 1016.50 1016.34 1015.87 1015.14 1014.25 1013.34 1012.50 1011.83 1011.36 1011.08 1010.96 1010.94 1010.93 1010.90 1010.82 1010.69 1010.56 1010.46 1010.44 1010.54 1010.76 1011.06 1011.40 1011.73 1011.99 1012.13 1012.14 1012.01 1011.78 1011.48 1011.13 1010.78 1010.43
1012.80 1012.72 1012.65 1012.68 1012.90 1013.35 1014.02 1014.84 1015.71 1016.49 1017.05 1017.29 1017.16 1016.66 1015.88 1014.90 1013.88 1012.93 1012.14 1011.57 1011.22 1011.05 1010.99 1010.97 1010.94 1010.86 1010.74 1010.61 1010.50 1010.45 1010.51 1010.68 1010.94 1011.24 1011.54 1011.79 1011.94 1011.98 1011.89 1011.70 1011.43 1011.11 1010.76 1010.38
1012.99 1012.82 1012.70 1012.74 1013.01 1013.54 1014.31 1015.25 1016.23 1017.12 1017.76 1018.06 1017.96 1017.48 1016.67 1015.66 1014.58 1013.55 1012.70 1012.05 1011.63 1011.39 1011.28 1011.23 1011.17 1011.07 1010.92 1010.76 1010.61 1010.52 1010.51 1010.61 1010.80 1011.04 1011.29 1011.51 1011.66 1011.71 1011.66 1011.51 1011.28 1010.99 1010.65 1010.27
1013.32 1013.10 1012.97 1013.01 1013.31 1013.88 1014.72 1015.72 1016.77 1017.71 1018.41 1018.76 1018.70 1018.26 1017.49 1016.49 1015.41 1014.38 1013.49 1012.80 1012.32 1012.02 1011.84 1011.72 1011.61 1011.45 1011.26 1011.04 1010.83 1010.66 1010.58 1010.59 1010.68 1010.83 1011.01 1011.18 1011.30 1011.35 1011.32 1011.21 1011.02 1010.77 1010.45 1010.06
1013.75 1013.52 1013.38 1013.43 1013.74 1014.33 1015.16 1016.17 1017.23 1018.18 1018.91 1019.30 1019.31 1018.93 1018.24 1017.32 1016.31 1015.33 1014.46 1013.76 1013.24 1012.88 1012.63 1012.44 1012.24 1012.01 1011.75 1011.46 1011.17 1010.92 1010.74 1010.64 1010.62 1010.67 1010.75 1010.85 1010.92 1010.95 1010.92 1010.82 1010.67 1010.44 1010.15 1009.77
1014.17 1013.96 1013.85 1013.91 1014.21 1014.77 1015.58 1016.54 1017.55 1018.48 1019.20 1019.62 1019.69 1019.42 1018.85 1018.06 1017.18 1016.29 1015.49 1014.81 1014.28 1013.88 1013.56 1013.29 1013.01 1012.70 1012.35 1011.98 1011.62 1011.28 1011.00 1010.79 1010.65 1010.58 1010.55 1010.55 1010.54 1010.52 1010.47 1010.38 1010.24 1010.04 1009.77 1009.42
1014.50 1014.35 1014.27 1014.35 1014.64 1015.16 1015.89 1016.76 1017.69 1018.55 1019.24 1019.68 1019.82 1019.66 1019.24 1018.62 1017.89 1017.14 1016.44 1015.82 1015.30 1014.87 1014.50 1014.15 1013.80 1013.41 1013.00 1012.56 1012.12 1011.71 1011.34 1011.02 1010.77 1010.57 1010.42 1010.30 1010.20 1010.10 1010.01 1009.90 1009.77 1009.60 1009.36 1009.05
1014.68 1014.62 1014.60 1014.70 1014.98 1015.44 1016.09 1016.86 1017.67 1018.44 1019.08 1019.52 1019.72 1019.67 1019.39 1018.94 1018.39 1017.79 1017.20 1016.66 1016.17 1015.73 1015.32 1014.92 1014.50 1014.06 1013.59 1013.10 1012.61 1012.14 1011.70 1011.29 1010.93 1010.61 1010.33 1010.09 1009.88 1009.70 1009.55 1009.41 1009.28 1009.14 1008.95 1008.69
1014.74 1014.77 1014.83 1014.97 1015.24 1015.66 1016.21 1016.87 1017.57 1018.24 1018.81 1019.23 1019.46 1019.50 1019.35 1019.06 1018.66 1018.20 1017.72 1017.25 1016.80 1016.36 1015.93 1015.49 1015.03 1014.55 1014.05 1013.53 1013.02 1012.51 1012.01 1011.53 1011.08 1010.66 1010.26 1009.90 1009.58 1009.31 1009.09 1008.93 1008.79 1008.68 1008.55 1008.37
1014.75 1014.88 1015.02 1015.21 1015.49 1015.87 1016.35 1016.90 1017.49 1018.05 1018.54 1018.92 1019.16 1019.25 1019.20 1019.01 1018.73 1018.39 1018.00 1017.59 1017.16 1016.73 1016.28 1015.81 1015.33 1014.83 1014.32 1013.80 1013.28 1012.75 1012.22 1011.69 1011.17 1010.65 1010.15 1009.68 1009.26 1008.91 1008.63 1008.43 1008.31 1008.22 1008.16 1008.08
1014.82 1015.03 1015.25 1015.49 1015.79 1016.16 1016.58 1017.05 1017.53 1018.00 1018.40 1018.72 1018.94 1019.04 1019.02 1018.90 1018.69 1018.41 1018.07 1017.69 1017.28 1016.84 1016.38 1015.90 1015.41 1014.90 1014.39 1013.88 1013.36 1012.83 1012.29 1011.72 1011.14 1010.55 1009.97 1009.41 1008.91 1008.48 1008.15 1007.93 1007.81 1007.76 1007.77 1007.79
1015.04 1015.32 1015.61 1015.91 1016.23 1016.59 1016.98 1017.38 1017.78 1018.15 1018.47 1018.71 1018.87 1018.93 1018.91 1018.79 1018.60 1018.33 1018.00 1017.63 1017.20 1016.75 1016.27 1015.78 1015.27 1014.77 1014.27 1013.77 1013.26 1012.74 1012.18 1011.60 1010.99 1010.35 1009.70 1009.07 1008.50 1008.02 1007.65 1007.40 1007.29 1007.28 1007.35 1007.46
1015.50 1015.82 1016.15 1016.49 1016.84 1017.20 1017.57 1017.92 1018.24 1018.52 1018.75 1018.90 1018.98 1018.97 1018.89 1018.73 1018.50 1018.20 1017.85 1017.44 1016.99 1016.51 1016.01 1015.49 1014.98 1014.47 1013.98 1013.49 1012.99 1012.48 1011.93 1011.34 1010.70 1010.03 1009.34 1008.67 1008.05 1007.52 1007.12 1006.86 1006.74 1006.75 1006.87 1007.05
1016.20 1016.53 1016.88 1017.24 1017.60 1017.96 1018.30 1018.61 1018.87 1019.06 1019.19 1019.24 1019.22 1019.12 1018.95 1018.71 1018.41 1018.05 1017.64 1017.18 1016.69 1016.17 1015.63 1015.09 1014.57 1014.05 1013.56 1013.07 1012.58 1012.08 1011.53 1010.94 1010.30 1009.62 1008.92 1008.22 1007.57 1007.01 1006.58 1006.29 1006.16 1006.18 1006.31 1006.54
1017.08 1017.40 1017.74 1018.09 1018.44 1018.78 1019.09 1019.35 1019.54 1019.65 1019.68 1019.62 1019.49 1019.28 1019.00 1018.67 1018.28 1017.84 1017.36 1016.84 1016.30 1015.74 1015.16 1014.60 1014.05 1013.53 1013.03 1012.54 1012.06 1011.56 1011.03 1010.45 1009.82 1009.15 1008.45 1007.75 1007.09 1006.51 1006.05 1005.73 1005.57 1005.56 1005.69 1005.91
1018.05 1018.33 1018.63 1018.95 1019.26 1019.56 1019.81 1020.00 1020.11 1020.14 1020.07 1019.91 1019.66 1019.34 1018.96 1018.52 1018.04 1017.53 1016.98 1016.40 1015.81 1015.20 1014.60 1014.00 1013.44 1012.89 1012.38 1011.90 1011.42 1010.93 1010.42 1009.87 1009.27 1008.63 1007.95 1007.27 1006.61 1006.02 1005.53 1005.18 1004.97 1004.91 1005.00 1005.20
1019.00 1019.23 1019.47 1019.72 1019.97 1020.19 1020.37 1020.47 1020.49 1020.42 1020.25 1019.98 1019.63 1019.20 1018.73 1018.20 1017.64 1017.05 1016.44 1015.81 1015.17 1014.53 1013.89 1013.28 1012.68 1012.13 1011.61 1011.12 1010.65 1010.19 1009.71 1009.20 1008.65 1008.06 1007.43 1006.78 1006.14 1005.55 1005.03 1004.63 1004.36 1004.24 1004.27 1004.43
1019.83 1020.00 1020.17 1020.34 1020.49 1020.61 1020.69 1020.69 1020.60 1020.42 1020.14 1019.77 1019.33 1018.81 1018.25 1017.65 1017.02 1016.37 1015.71 1015.04 1014.36 1013.69 1013.02 1012.38 1011.77 1011.19 1010.67 1010.18 1009.73 1009.30 1008.88 1008.43 1007.95 1007.42 1006.86 1006.26 1005.65 1005.07 1004.54 1004.09 1003.77 1003.58 1003.54 1003.65
1020.50 1020.61 1020.69 1020.76 1020.80 1020.81 1020.76 1020.64 1020.43 1020.14 1019.76 1019.29 1018.76 1018.17 1017.53 1016.87 1016.19 1015.50 1014.79 1014.08 1013.37 1012.66 1011.96 1011.29 1010.66 1010.07 1009.54 1009.07 1008.65 1008.26 1007.90 1007.53 1007.13 1006.70 1006.21 1005.68 1005.12 1004.56 1004.02 1003.54 1003.17 1002.92 1002.81 1002.87
1020.99 1021.03 1021.03 1021.00 1020.92 1020.79 1020.61 1020.36 1020.04 1019.63 1019.15 1018.60 1017.98 1017.32 1016.63 1015.92 1015.19 1014.45 1013.71 1012.95 1012.20 1011.45 1010.72 1010.02 1009.36 1008.76 1008.23 1007.78 1007.39 1007.07 1006.77 1006.49 1006.19 1005.86 1005.47 1005.02 1004.52 1003.99 1003.46 1002.96 1002.55 1002.26 1002.11 1002.14
1021.31 1021.30 1021.21 1021.07 1020.87 1020.62 1020.31 1019.93 1019.49 1018.98 1018.40 1017.77 1017.09 1016.37 1015.63 1014.87 1014.10 1013.31 1012.52 1011.72 1010.92 1010.12 1009.34 1008.61 1007.92 1007.31 1006.78 1006.35 1006.01 1005.74 1005.53 1005.34 1005.14 1004.91 1004.62 1004.25 1003.82 1003.34 1002.83 1002.34 1001.92 1001.60 1001.44 1001.45
1021.50 1021.43 1021.26 1021.02 1020.71 1020.34 1019.91 1019.42 1018.88 1018.27 1017.62 1016.92 1016.19 1015.42 1014.63 1013.82 1013.00 1012.16 1011.31 1010.45 1009.59 1008.73 1007.90 1007.12 1006.41 1005.78 1005.26 1004.85 1004.55 1004.34 1004.21 1004.11 1004.01 1003.88 1003.68 1003.40 1003.03 1002.60 1002.13 1001.67 1001.25 1000.94 1000.78 1000.80
Thickness
5752 5738 5733 5741 5746 5750 5748 5744 5743 5754 5769 5764 5760 5762 5770 5778 5780 5777 5776 5775 5775 5775 5778 5779 5778 5777 5774 5771 5768 5764 5761 5757 5753 5747 5742 5737 5735 5734 5733 5733 5731 5730 5729 5728
5735 5733 5747 5753 5752 5747 5743 5739 5741 5750 5761 5757 5752 5752 5759 5766 5767 5770 5770 5767 5766 5766 5767 5769 5769 5768 5767 5764 5761 5758 5755 5751 5746 5741 5737 5733 5729 5727 5725 5723 5722 5721 5720 5720
5733 5743 5758 5756 5750 5743 5741 5738 5740 5742 5747 5747 5746 5736 5745 5754 5759 5763 5764 5762 5761 5761 5760 5761 5761 5761 5760 5757 5755 5753 5748 5744 5740 5736 5731 5726 5722 5718 5715 5713 5712 5711 5711 5711
5738 5750 5755 5751 5748 5745 5733 5747 5745 5740 5728 5718 5727 5707 5730 5738 5743 5749 5752 5754 5755 5757 5757 5756 5756 5755 5755 5754 5751 5747 5742 5738 5734 5730 5725 5719 5713 5708 5707 5704 5703 5702 5701 5701
5738 5751 5750 5745 5749 5751 5743 5747 5738 5729 5721 5709 5711 5701 5711 5729 5734 5740 5745 5749 5751 5753 5753 5752 5752 5752 5752 5749 5745 5740 5736 5732 5729 5725 5720 5714 5709 5705 5702 5699 5696 5694 5693 5692
5744 5756 5755 5752 5756 5754 5747 5733 5719 5706 5697 5689 5701 5696 5698 5715 5729 5736 5742 5746 5748 5749 5749 5748 5749 5748 5745 5743 5739 5734 5731 5728 5725 5721 5716 5711 5706 5702 5697 5694 5690 5688 5686 5684
5730 5741 5752 5756 5745 5744 5733 5708 5682 5679 5671 5677 5695 5692 5696 5724 5732 5734 5738 5741 5743 5742 5741 5740 5739 5738 5737 5735 5733 5729 5726 5723 5720 5716 5711 5707 5703 5698 5693 5689 5685 5682 5679 5678
5712 5711 5739 5749 5743 5731 5727 5709 5681 5670 5665 5673 5688 5689 5707 5725 5730 5732 5731 5730 5730 5728 5727 5727 5727 5727 5728 5728 5726 5723 5720 5717 5713 5709 5705 5701 5697 5692 5688 5684 5680 5677 5674 5672
5711 5712 5740 5747 5747 5738 5719 5707 5704 5681 5676 5667 5676 5692 5707 5716 5716 5716 5715 5713 5711 5711 5713 5714 5715 5716 5716 5716 5715 5712 5710 5707 5704 5701 5698 5694 5691 5687 5683 5680 5676 5672 5669 5666
5726 5714 5728 5735 5742 5736 5727 5707 5688 5676 5664 5659 5672 5675 5670 5681 5685 5691 5693 5693 5694 5696 5698 5700 5700 5701 5701 5701 5701 5700 5697 5694 5692 5690 5688 5686 5684 5681 5677 5673 5670 5667 5663 5660
5731 5710 5714 5719 5718 5715 5716 5705 5685 5671 5667 5657 5653 5660 5673 5668 5670 5672 5675 5677 5679 5680 5682 5683 5683 5685 5686 5687 5686 5684 5683 5682 5681 5680 5679 5677 5675 5673 5670 5667 5665 5661 5658 5655
5721 5703 5695 5705 5719 5721 5717 5707 5687 5675 5670 5658 5651 5651 5668 5665 5663 5663 5663 5666 5666 5666 5667 5667 5668 5670 5671 5671 5670 5670 5669 5669 5669 5670 5670 5670 5669 5667 5664 5662 5660 5656 5653 5650
5719 5702 5687 5688 5697 5711 5709 5704 5694 5677 5664 5651 5645 5650 5657 5655 5652 5652 5651 5651 5653 5653 5654 5653 5653 5653 5654 5654 5654 5655 5655 5656 5658 5659 5661 5662 5662 5661 5660 5658 5655 5651 5648 5645
5726 5704 5693 5686 5689 5699 5699 5696 5689 5671 5657 5652 5654 5652 5643 5641 5639 5639 5639 5638 5639 5639 5639 5639 5638 5637 5637 5637 5638 5639 5640 5642 5644 5647 5650 5653 5655 5656 5655 5653 5650 5646 5643 5640
5724 5706 5702 5700 5703 5700 5693 5686 5680 5671 5661 5652 5650 5641 5631 5630 5628 5628 5628 5628 5628 5627 5627 5625 5624 5623 5622 5622 5623 5625 5626 5627 5629 5632 5636 5641 5646 5649 5649 5647 5645 5641 5638 5635
5715 5708 5702 5699 5702 5695 5681 5671 5666 5656 5650 5646 5640 5630 5625 5623 5622 5620 5617 5616 5615 5613 5611 5610 5608 5607 5606 5606 5608 5609 5610 5612 5614 5616 5620 5627 5633 5638 5640 5640 5638 5636 5633 5630
5701 5696 5687 5680 5686 5686 5660 5652 5650 5642 5636 5631 5625 5617 5615 5612 5610 5605 5603 5601 5599 5597 5595 5592 5591 5589 5588 5588 5588 5589 5592 5595 5596 5599 5604 5609 5616 5623 5628 5630 5630 5628 5627 5624
5692 5683 5670 5667 5673 5658 5641 5645 5640 5630 5623 5618 5613 5608 5603 5599 5597 5595 5591 5587 5584 5581 5578 5575 5573 5571 5570 5569 5569 5570 5572 5573 5576 5580 5584 5589 5596 5603 5610 5616 5619 5620 5619 5617
5689 5678 5662 5653 5651 5642 5637 5633 5627 5618 5614 5606 5599 5597 5594 5590 5584 5583 5581 5575 5567 5561 5556 5553 5551 5549 5548 5548 5548 5548 5551 5552 5554 5559 5563 5568 5574 5581 5590 5598 5605 5609 5610 5610
5677 5670 5656 5647 5644 5635 5619 5622 5621 5611 5604 5596 5590 5584 5579 5571 5561 5565 5562 5555 5548 5543 5538 5534 5532 5529 5527 5527 5525 5525 5528 5531 5534 5539 5543 5547 5551 5558 5568 5579 5589 5596 5600 5603
5660 5651 5643 5637 5633 5619 5608 5612 5613 5593 5588 5587 5578 5569 5560 5549 5543 5544 5538 5531 5525 5521 5518 5514 5512 5511 5510 5509 5507 5508 5511 5515 5521 5525 5528 5531 5535 5540 5549 5561 5573 5584 5590 5594
5643 5639 5632 5626 5620 5609 5605 5601 5591 5584 5580 5571 5563 5554 5544 5537 5532 5526 5519 5513 5507 5503 5501 5498 5496 5497 5497 5495 5493 5496 5500 5507 5510 5513 5516 5520 5523 5527 5535 5544 5558 5572 5581 5586
5631 5625 5621 5615 5606 5602 5597 5590 5585 5575 5563 5556 5545 5539 5528 5520 5514 5509 5504 5500 5497 5495 5494 5493 5491 5492 5493 5491 5489 5490 5496 5500 5502 5504 5507 5510 5512 5514 5520 5530 5544 5560 5573 5580
5624 5621 5613 5605 5601 5597 5591 5583 5574 5563 5552 5544 5533 5523 5511 5503 5500 5497 5496 5494 5493 5492 5491 5491 5490 5490 5491 5490 5489 5489 5492 5493 5495 5497 5500 5501 5503 5506 5511 5520 5534 5549 5564 5575
5614 5611 5603 5595 5592 5586 5581 5573 5564 5553 5542 5532 5522 5510 5499 5493 5493 5493 5493 5493 5493 5493 5491 5489 5487 5487 5488 5486 5486 5486 5486 5486 5487 5490 5492 5494 5496 5499 5504 5512 5526 5540 5556 5571
5606 5599 5592 5585 5582 5571 5567 5562 5552 5540 5529 5519 5509 5503 5498 5491 5491 5492 5493 5493 5492 5491 5489 5487 5485 5484 5484 5483 5482 5481 5480 5479 5479 5482 5485 5487 5490 5494 5499 5507 5520 5536 5549 5563